Satellite-Ground Cal/Val Region Overpasses Predictions

Prediction of Satellite NPP Overpassing Cal/Val Region: PacNW

Region Location: (Latitude: 10.00, Longitude: 139.50) to (Latitude: 22.70, Longitude: 165.60).

Table of predicted overpasses for the next 14.0 days since TLE Epoch: 10/9/2021
Interval Starting Time Starting Location Ending Time Ending Location
1 10/09/2021 02:59:31 ( 11.09, 154.75) 10/09/2021 03:02:48 ( 22.66, 151.99)
2 10/09/2021 15:31:06 ( 22.69, 152.24) 10/09/2021 15:34:42 ( 10.01, 149.22)
3 10/10/2021 02:40:12 ( 10.05, 159.75) 10/10/2021 02:43:47 ( 22.67, 156.74)
4 10/10/2021 15:12:05 ( 22.68, 157.00) 10/10/2021 15:15:41 ( 10.00, 153.98)
5 10/11/2021 02:21:09 ( 10.00, 164.52) 10/11/2021 02:24:45 ( 22.68, 161.50)
6 10/11/2021 14:53:03 ( 22.67, 161.75) 10/11/2021 14:56:38 ( 10.05, 158.75)
7 10/12/2021 03:43:38 ( 10.02, 143.90) 10/12/2021 03:47:14 ( 22.70, 140.88)
8 10/12/2021 14:35:05 ( 18.96, 165.60) 10/12/2021 14:37:37 ( 10.04, 163.50)
9 10/12/2021 16:15:32 ( 22.65, 141.13) 10/12/2021 16:17:26 ( 15.96, 139.51)
10 10/13/2021 03:24:37 ( 10.03, 148.65) 10/13/2021 03:28:12 ( 22.65, 145.65)
11 10/13/2021 15:56:29 ( 22.69, 145.90) 10/13/2021 16:00:05 ( 10.02, 142.88)
12 10/14/2021 03:05:35 ( 10.05, 153.41) 10/14/2021 03:09:10 ( 22.67, 150.40)
13 10/14/2021 15:37:28 ( 22.68, 150.66) 10/14/2021 15:41:04 ( 10.00, 147.64)
14 10/15/2021 02:46:33 ( 10.00, 158.18) 10/15/2021 02:50:09 ( 22.68, 155.16)
15 10/15/2021 15:18:26 ( 22.67, 155.41) 10/15/2021 15:22:01 ( 10.05, 152.41)
16 10/16/2021 02:27:31 ( 10.02, 162.93) 10/16/2021 02:31:07 ( 22.70, 159.91)
17 10/16/2021 14:59:25 ( 22.65, 160.17) 10/16/2021 15:03:00 ( 10.03, 157.16)
18 10/17/2021 02:11:02 ( 18.96, 165.59) 10/17/2021 02:12:05 ( 22.65, 164.68)
19 10/17/2021 03:50:00 ( 10.04, 142.31) 10/17/2021 03:53:21 ( 21.84, 139.51)
20 10/17/2021 14:40:22 ( 22.70, 164.94) 10/17/2021 14:43:58 ( 10.02, 161.92)
21 10/17/2021 16:21:52 ( 22.69, 139.56) 10/17/2021 16:21:56 ( 22.46, 139.50)
22 10/18/2021 03:30:58 ( 10.05, 147.07) 10/18/2021 03:34:33 ( 22.68, 144.06)
23 10/18/2021 16:02:51 ( 22.68, 144.32) 10/18/2021 16:06:26 ( 10.06, 141.31)
24 10/19/2021 03:11:56 ( 10.01, 151.84) 10/19/2021 03:15:32 ( 22.69, 148.82)
25 10/19/2021 15:43:49 ( 22.66, 149.07) 10/19/2021 15:47:24 ( 10.04, 146.07)
26 10/20/2021 02:52:54 ( 10.03, 156.59) 10/20/2021 02:56:29 ( 22.65, 153.59)
27 10/20/2021 15:24:48 ( 22.64, 153.83) 10/20/2021 15:28:23 ( 10.03, 150.82)
28 10/21/2021 02:33:53 ( 10.04, 161.35) 10/21/2021 02:37:28 ( 22.67, 158.34)
29 10/21/2021 15:05:46 ( 22.69, 158.60) 10/21/2021 15:09:22 ( 10.01, 155.58)
30 10/22/2021 02:15:29 ( 12.30, 165.59) 10/22/2021 02:18:26 ( 22.69, 163.09)
31 10/22/2021 03:56:20 ( 10.01, 140.74) 10/22/2021 03:57:50 ( 15.30, 139.51)
